|
NORAD ID: 21101 Int'l Code: 1991-009B
Perigee: 1,473.3 km
Apogee: 1,503.5 km
Inclination: 74.0 °
Period: 115.6 minutes
Semi major axis: 7859 km
Launch date: February 12, 1991
Source: Commonwealth of Independent States (former USSR) (CIS)
Two Line Element Set (TLE):
1 21101U 91009B 13142.77172687 .00000018 00000-0 23634-3 0 676
2 21101 074.0314 261.3337 0019259 344.8464 183.9575 12.45999872 13301
Source:
NASA's NSSDC Master Catalog entry for COSMOS 2126
|